Location: Newark
(40.9833°N, 0.0333°W)
Time: 02:28:29
(UTC+00:00)

Altair - Pass Details

Date: 04 November 2020
Orbit: 1502 x 1682 km, 47.2° (Epoch: 02 December)

Event Time Altitude Azimuth Distance (km) Brightness Sun altitude
Rises 04:59:40 0° 263° (W) 4,638 - -18.3°
Reaches altitude 10° 05:02:43 10° 266° (W) 3,668 - -17.8°
Exits shadow 05:05:38 23° 272° (W) 2,786 8.2 -17.2°
Maximum altitude 05:11:53 65° 348° (NNW) 1,674 7.6 -16.0°
Drops below altitude 10° 05:21:24 10° 70° (ENE) 3,789 10.5 -14.3°
Sets 05:24:37 0° 73° (ENE) 4,799 11.3 -13.7°
